Time,TemperatureF,DewpointF,PressureIn,WindDirection,WindDirectionDegrees,WindSpeedMPH,WindSpeedGustMPH,Humidity,HourlyPrecipIn,Conditions,Clouds,dailyrainin,SoftwareType,DateUTC
2013-11-26 00:02:00,22.5,18.4,30.54,SSE,153,0.0,1.0,84,0.00,,,0.00,WeatherTracker,2013-11-26 08:02:00,
2013-11-26 00:07:00,22.3,18.2,30.54,SSE,153,0.0,1.0,84,0.00,,,0.00,WeatherTracker,2013-11-26 08:07:00,
2013-11-26 00:12:00,22.3,18.2,30.54,SSE,153,0.0,0.0,84,0.00,,,0.00,WeatherTracker,2013-11-26 08:12:00,
2013-11-26 00:17:00,22.1,18.0,30.54,SSE,153,0.0,0.0,84,0.00,,,0.00,WeatherTracker,2013-11-26 08:17:00,
2013-11-26 00:22:00,21.9,17.8,30.53,SSE,153,0.0,0.0,84,0.00,,,0.00,WeatherTracker,2013-11-26 08:22:00,
2013-11-26 00:27:00,21.7,17.6,30.53,SSE,153,0.0,0.0,84,0.00,,,0.00,WeatherTracker,2013-11-26 08:27:00,
2013-11-26 00:32:00,21.6,17.8,30.53,SSE,153,0.0,0.0,85,0.00,,,0.00,WeatherTracker,2013-11-26 08:32:00,
2013-11-26 00:37:00,21.6,17.8,30.53,SSE,153,0.0,0.0,85,0.00,,,0.00,WeatherTracker,2013-11-26 08:37:00,
2013-11-26 00:42:00,21.6,17.8,30.53,SSE,153,0.0,2.0,85,0.00,,,0.00,WeatherTracker,2013-11-26 08:42:00,
2013-11-26 00:47:00,21.5,17.7,30.53,SSE,153,0.0,2.0,85,0.00,,,0.00,WeatherTracker,2013-11-26 08:47:00,
2013-11-26 00:52:00,21.2,17.4,30.53,SSE,153,0.0,2.0,85,0.00,,,0.00,WeatherTracker,2013-11-26 08:52:00,
2013-11-26 00:57:00,21.0,17.2,30.53,SSE,153,0.0,0.0,85,0.00,,,0.00,WeatherTracker,2013-11-26 08:57:00,
2013-11-26 01:02:00,21.2,17.7,30.53,SSE,153,0.0,0.0,86,0.00,,,0.00,WeatherTracker,2013-11-26 09:02:00,
2013-11-26 01:07:00,21.2,17.7,30.53,SSE,153,0.0,0.0,86,0.00,,,0.00,WeatherTracker,2013-11-26 09:07:00,
2013-11-26 01:12:00,21.7,18.2,30.53,SSE,153,2.0,0.0,86,0.00,,,0.00,WeatherTracker,2013-11-26 09:12:00,
2013-11-26 01:17:00,21.2,17.7,30.53,SSE,153,0.0,2.0,86,0.00,,,0.00,WeatherTracker,2013-11-26 09:17:00,
2013-11-26 01:22:00,20.5,16.7,30.52,SSE,153,0.0,2.0,85,0.00,,,0.00,WeatherTracker,2013-11-26 09:22:00,
2013-11-26 01:28:00,20.1,16.3,30.52,SSE,153,1.0,0.0,85,0.00,,,0.00,WeatherTracker,2013-11-26 09:28:00,
2013-11-26 01:32:00,19.9,16.1,30.53,SSE,153,0.0,2.0,85,0.00,,,0.00,WeatherTracker,2013-11-26 09:32:00,
2013-11-26 01:37:00,19.7,15.9,30.53,SSE,153,0.0,2.0,85,0.00,,,0.00,WeatherTracker,2013-11-26 09:37:00,
2013-11-26 01:43:00,19.9,16.4,30.53,SSE,153,0.0,0.0,86,0.00,,,0.00,WeatherTracker,2013-11-26 09:43:00,
2013-11-26 01:48:00,20.2,16.7,30.52,SSE,153,0.0,0.0,86,0.00,,,0.00,WeatherTracker,2013-11-26 09:48:00,
2013-11-26 01:53:00,20.2,16.7,30.52,SSE,153,0.0,0.0,86,0.00,,,0.00,WeatherTracker,2013-11-26 09:53:00,
2013-11-26 01:58:00,20.0,16.5,30.52,SSE,153,1.0,0.0,86,0.00,,,0.00,WeatherTracker,2013-11-26 09:58:00,
2013-11-26 02:03:00,20.0,16.5,30.52,SSE,153,0.0,3.0,86,0.00,,,0.00,WeatherTracker,2013-11-26 10:03:00,
2013-11-26 02:08:00,20.0,16.8,30.52,SSE,153,0.0,3.0,87,0.00,,,0.00,WeatherTracker,2013-11-26 10:08:00,
2013-11-26 02:13:00,20.2,17.0,30.52,SSE,153,0.0,0.0,87,0.00,,,0.00,WeatherTracker,2013-11-26 10:13:00,
2013-11-26 02:18:00,20.5,17.3,30.52,SSE,153,0.0,0.0,87,0.00,,,0.00,WeatherTracker,2013-11-26 10:18:00,
2013-11-26 02:23:00,20.5,17.3,30.52,SSE,153,0.0,0.0,87,0.00,,,0.00,WeatherTracker,2013-11-26 10:23:00,
2013-11-26 02:28:00,19.7,16.5,30.52,SSE,153,1.0,3.0,87,0.00,,,0.00,WeatherTracker,2013-11-26 10:28:00,
2013-11-26 02:33:00,19.1,15.6,30.52,SSE,153,1.0,4.0,86,0.00,,,0.00,WeatherTracker,2013-11-26 10:33:00,
2013-11-26 02:38:00,18.9,15.4,30.52,SSE,153,2.0,4.0,86,0.00,,,0.00,WeatherTracker,2013-11-26 10:38:00,
2013-11-26 02:43:00,19.1,15.9,30.52,SSE,153,0.0,3.0,87,0.00,,,0.00,WeatherTracker,2013-11-26 10:43:00,
2013-11-26 02:48:00,19.2,15.7,30.52,SSE,153,0.0,3.0,86,0.00,,,0.00,WeatherTracker,2013-11-26 10:48:00,
2013-11-26 02:53:00,19.5,16.3,30.52,SSE,153,2.0,3.0,87,0.00,,,0.00,WeatherTracker,2013-11-26 10:53:00,
2013-11-26 02:58:00,19.4,16.2,30.52,SSE,153,0.0,2.0,87,0.00,,,0.00,WeatherTracker,2013-11-26 10:58:00,
2013-11-26 03:03:00,19.3,16.1,30.51,SSE,153,0.0,2.0,87,0.00,,,0.00,WeatherTracker,2013-11-26 11:03:00,
2013-11-26 03:08:00,18.2,14.7,30.52,SSE,153,2.0,3.0,86,0.00,,,0.00,WeatherTracker,2013-11-26 11:08:00,
2013-11-26 03:13:00,17.6,14.1,30.52,SSE,153,1.0,3.0,86,0.00,,,0.00,WeatherTracker,2013-11-26 11:13:00,
2013-11-26 03:18:00,17.9,14.4,30.52,SSE,153,2.0,3.0,86,0.00,,,0.00,WeatherTracker,2013-11-26 11:18:00,
2013-11-26 03:23:00,18.3,15.1,30.52,SSE,153,0.0,4.0,87,0.00,,,0.00,WeatherTracker,2013-11-26 11:23:00,
2013-11-26 03:29:00,18.5,15.3,30.52,SSE,153,0.0,4.0,87,0.00,,,0.00,WeatherTracker,2013-11-26 11:29:00,
2013-11-26 03:34:00,18.8,15.6,30.52,SSE,153,0.0,2.0,87,0.00,,,0.00,WeatherTracker,2013-11-26 11:34:00,
2013-11-26 03:39:00,18.8,15.6,30.52,SSE,153,0.0,1.0,87,0.00,,,0.00,WeatherTracker,2013-11-26 11:39:00,
2013-11-26 03:44:00,18.8,15.6,30.52,SSE,153,0.0,2.0,87,0.00,,,0.00,WeatherTracker,2013-11-26 11:44:00,
2013-11-26 03:49:00,18.6,15.4,30.52,SSE,153,0.0,2.0,87,0.00,,,0.00,WeatherTracker,2013-11-26 11:49:00,
2013-11-26 03:54:00,18.5,15.3,30.52,SSE,153,0.0,0.0,87,0.00,,,0.00,WeatherTracker,2013-11-26 11:54:00,
2013-11-26 03:59:00,18.5,15.3,30.52,SSE,153,0.0,2.0,87,0.00,,,0.00,WeatherTracker,2013-11-26 11:59:00,
2013-11-26 04:04:00,18.6,15.4,30.52,SSE,153,1.0,2.0,87,0.00,,,0.00,WeatherTracker,2013-11-26 12:04:00,
2013-11-26 04:09:00,18.6,15.4,30.52,SSE,153,0.0,3.0,87,0.00,,,0.00,WeatherTracker,2013-11-26 12:09:00,
2013-11-26 04:14:00,18.2,15.0,30.51,SSE,153,1.0,3.0,87,0.00,,,0.00,WeatherTracker,2013-11-26 12:14:00,
2013-11-26 04:19:00,17.8,14.3,30.52,SSE,153,0.0,2.0,86,0.00,,,0.00,WeatherTracker,2013-11-26 12:19:00,
2013-11-26 04:24:00,17.6,14.1,30.52,SSE,153,0.0,2.0,86,0.00,,,0.00,WeatherTracker,2013-11-26 12:24:00,
2013-11-26 04:29:00,17.5,14.3,30.51,SSE,153,0.0,0.0,87,0.00,,,0.00,WeatherTracker,2013-11-26 12:29:00,
2013-11-26 04:34:00,17.4,14.2,30.51,SSE,153,0.0,1.0,87,0.00,,,0.00,WeatherTracker,2013-11-26 12:34:00,
2013-11-26 04:39:00,17.6,14.4,30.51,SSE,153,0.0,1.0,87,0.00,,,0.00,WeatherTracker,2013-11-26 12:39:00,
2013-11-26 04:44:00,17.7,14.5,30.51,SSE,153,0.0,0.0,87,0.00,,,0.00,WeatherTracker,2013-11-26 12:44:00,
2013-11-26 04:49:00,18.0,14.8,30.51,SSE,153,0.0,0.0,87,0.00,,,0.00,WeatherTracker,2013-11-26 12:49:00,
2013-11-26 04:55:00,18.1,14.9,30.51,SSE,153,0.0,0.0,87,0.00,,,0.00,WeatherTracker,2013-11-26 12:55:00,
2013-11-26 05:00:00,17.6,14.4,30.51,SSE,153,0.0,0.0,87,0.00,,,0.00,WeatherTracker,2013-11-26 13:00:00,
2013-11-26 05:05:00,17.4,14.2,30.51,SSE,153,0.0,0.0,87,0.00,,,0.00,WeatherTracker,2013-11-26 13:05:00,
2013-11-26 05:10:00,17.4,14.2,30.51,SSE,153,1.0,2.0,87,0.00,,,0.00,WeatherTracker,2013-11-26 13:10:00,
2013-11-26 05:15:00,16.9,13.7,30.50,SSE,153,1.0,2.0,87,0.00,,,0.00,WeatherTracker,2013-11-26 13:15:00,
2013-11-26 05:20:00,17.3,14.1,30.51,SSE,153,1.0,2.0,87,0.00,,,0.00,WeatherTracker,2013-11-26 13:20:00,
2013-11-26 05:25:00,18.0,14.8,30.50,SSE,153,0.0,2.0,87,0.00,,,0.00,WeatherTracker,2013-11-26 13:25:00,
2013-11-26 05:30:00,18.4,15.5,30.50,SSE,153,0.0,2.0,88,0.00,,,0.00,WeatherTracker,2013-11-26 13:30:00,
2013-11-26 05:35:00,18.4,15.5,30.50,SSE,153,0.0,0.0,88,0.00,,,0.00,WeatherTracker,2013-11-26 13:35:00,
2013-11-26 05:40:00,17.9,14.7,30.50,SSE,153,0.0,0.0,87,0.00,,,0.00,WeatherTracker,2013-11-26 13:40:00,
2013-11-26 05:45:00,17.1,13.9,30.50,SSE,153,0.0,0.0,87,0.00,,,0.00,WeatherTracker,2013-11-26 13:45:00,
2013-11-26 05:50:00,16.6,13.2,30.50,SSE,153,0.0,0.0,86,0.00,,,0.00,WeatherTracker,2013-11-26 13:50:00,
2013-11-26 05:55:00,16.3,12.9,30.51,SSE,153,0.0,0.0,86,0.00,,,0.00,WeatherTracker,2013-11-26 13:55:00,
2013-11-26 06:00:00,16.1,12.7,30.51,SSE,153,0.0,0.0,86,0.00,,,0.00,WeatherTracker,2013-11-26 14:00:00,
2013-11-26 06:05:00,16.3,12.9,30.51,SSE,153,0.0,0.0,86,0.00,,,0.00,WeatherTracker,2013-11-26 14:05:00,
2013-11-26 06:10:00,16.2,12.8,30.51,SSE,153,0.0,0.0,86,0.00,,,0.00,WeatherTracker,2013-11-26 14:10:00,
2013-11-26 06:15:00,16.2,13.0,30.51,SSE,153,1.0,0.0,87,0.00,,,0.00,WeatherTracker,2013-11-26 14:15:00,
2013-11-26 06:20:00,16.0,12.6,30.50,SSE,153,0.0,2.0,86,0.00,,,0.00,WeatherTracker,2013-11-26 14:20:00,
2013-11-26 06:25:00,15.8,12.4,30.51,SSE,153,0.0,2.0,86,0.00,,,0.00,WeatherTracker,2013-11-26 14:25:00,
2013-11-26 06:30:00,15.7,12.3,30.50,SSE,153,0.0,0.0,86,0.00,,,0.00,WeatherTracker,2013-11-26 14:30:00,
2013-11-26 06:35:00,15.7,12.3,30.51,SSE,153,0.0,0.0,86,0.00,,,0.00,WeatherTracker,2013-11-26 14:35:00,
2013-11-26 06:40:00,15.9,12.7,30.50,SSE,153,0.0,0.0,87,0.00,,,0.00,WeatherTracker,2013-11-26 14:40:00,
2013-11-26 06:45:00,16.1,12.9,30.51,SSE,153,0.0,0.0,87,0.00,,,0.00,WeatherTracker,2013-11-26 14:45:00,
2013-11-26 06:50:00,16.2,13.0,30.51,SSE,153,0.0,0.0,87,0.00,,,0.00,WeatherTracker,2013-11-26 14:50:00,
2013-11-26 06:56:00,16.2,13.0,30.51,SSE,153,0.0,0.0,87,0.00,,,0.00,WeatherTracker,2013-11-26 14:56:00,
2013-11-26 07:01:00,16.5,13.3,30.51,SSE,153,0.0,0.0,87,0.00,,,0.00,WeatherTracker,2013-11-26 15:01:00,
2013-11-26 07:06:00,16.5,13.3,30.51,SSE,153,0.0,0.0,87,0.00,,,0.00,WeatherTracker,2013-11-26 15:06:00,
2013-11-26 07:11:00,16.4,13.2,30.51,SSE,153,1.0,2.0,87,0.00,,,0.00,WeatherTracker,2013-11-26 15:11:00,
2013-11-26 07:16:00,16.7,13.5,30.51,SSE,153,0.0,2.0,87,0.00,,,0.00,WeatherTracker,2013-11-26 15:16:00,
2013-11-26 07:21:00,17.0,13.8,30.51,SSE,153,0.0,2.0,87,0.00,,,0.00,WeatherTracker,2013-11-26 15:21:00,
2013-11-26 07:26:00,17.4,14.2,30.51,SSE,153,0.0,0.0,87,0.00,,,0.00,WeatherTracker,2013-11-26 15:26:00,
2013-11-26 07:31:00,17.8,14.9,30.51,SSE,153,0.0,0.0,88,0.00,,,0.00,WeatherTracker,2013-11-26 15:31:00,
2013-11-26 07:36:00,18.5,15.6,30.51,SSE,153,0.0,2.0,88,0.00,,,0.00,WeatherTracker,2013-11-26 15:36:00,
2013-11-26 07:41:00,19.4,16.4,30.51,SSE,153,2.0,2.0,88,0.00,,,0.00,WeatherTracker,2013-11-26 15:41:00,
2013-11-26 07:46:00,20.3,17.3,30.51,SSE,153,1.0,2.0,88,0.00,,,0.00,WeatherTracker,2013-11-26 15:46:00,
2013-11-26 07:51:00,21.3,18.3,30.51,SSE,153,0.0,2.0,88,0.00,,,0.00,WeatherTracker,2013-11-26 15:51:00,
2013-11-26 07:56:00,22.2,19.2,30.51,SSE,153,0.0,2.0,88,0.00,,,0.00,WeatherTracker,2013-11-26 15:56:00,
2013-11-26 08:01:00,23.1,20.1,30.51,SSE,153,0.0,2.0,88,0.00,,,0.00,WeatherTracker,2013-11-26 16:01:00,
2013-11-26 08:06:00,23.9,20.9,30.51,SSE,153,0.0,2.0,88,0.00,,,0.00,WeatherTracker,2013-11-26 16:06:00,
2013-11-26 08:11:00,24.5,21.2,30.51,SSE,153,0.0,1.0,87,0.00,,,0.00,WeatherTracker,2013-11-26 16:11:00,
2013-11-26 08:16:00,24.5,20.9,30.51,SSE,153,0.0,0.0,86,0.00,,,0.00,WeatherTracker,2013-11-26 16:16:00,
2013-11-26 08:21:00,24.5,20.9,30.50,SSE,153,0.0,0.0,86,0.00,,,0.00,WeatherTracker,2013-11-26 16:21:00,
2013-11-26 08:26:00,24.6,21.0,30.50,SSE,153,0.0,0.0,86,0.00,,,0.00,WeatherTracker,2013-11-26 16:26:00,
2013-11-26 08:32:00,24.9,21.3,30.50,SSE,153,0.0,0.0,86,0.00,,,0.00,WeatherTracker,2013-11-26 16:32:00,
2013-11-26 08:37:00,25.4,21.8,30.50,SSE,153,0.0,0.0,86,0.00,,,0.00,WeatherTracker,2013-11-26 16:37:00,
2013-11-26 08:42:00,26.0,22.1,30.50,SSE,153,0.0,0.0,85,0.00,,,0.00,WeatherTracker,2013-11-26 16:42:00,
2013-11-26 08:47:00,26.5,22.6,30.51,SSE,153,0.0,0.0,85,0.00,,,0.00,WeatherTracker,2013-11-26 16:47:00,
2013-11-26 08:52:00,27.3,23.4,30.50,SSE,153,0.0,0.0,85,0.00,,,0.00,WeatherTracker,2013-11-26 16:52:00,
2013-11-26 08:57:00,27.7,23.5,30.50,SSE,153,0.0,1.0,84,0.00,,,0.00,WeatherTracker,2013-11-26 16:57:00,
2013-11-26 09:02:00,27.8,23.3,30.50,SSE,153,2.0,2.0,83,0.00,,,0.00,WeatherTracker,2013-11-26 17:02:00,
2013-11-26 09:07:00,28.0,23.5,30.50,SSE,153,3.0,3.0,83,0.00,,,0.00,WeatherTracker,2013-11-26 17:07:00,
2013-11-26 09:12:00,28.4,23.9,30.50,SSE,153,0.0,3.0,83,0.00,,,0.00,WeatherTracker,2013-11-26 17:12:00,
2013-11-26 09:17:00,28.8,24.3,30.50,SSE,153,0.0,3.0,83,0.00,,,0.00,WeatherTracker,2013-11-26 17:17:00,
2013-11-26 09:22:00,29.3,24.5,30.50,SSE,153,0.0,3.0,82,0.00,,,0.00,WeatherTracker,2013-11-26 17:22:00,
2013-11-26 09:27:00,29.9,25.1,30.50,SSE,153,0.0,2.0,82,0.00,,,0.00,WeatherTracker,2013-11-26 17:27:00,
2013-11-26 09:32:00,30.7,25.6,30.50,SSE,153,0.0,2.0,81,0.00,,,0.00,WeatherTracker,2013-11-26 17:32:00,
2013-11-26 09:37:00,31.5,26.1,30.49,SSE,153,0.0,1.0,80,0.00,,,0.00,WeatherTracker,2013-11-26 17:37:00,
2013-11-26 09:42:00,32.0,26.2,30.49,SSE,153,1.0,2.0,79,0.00,,,0.00,WeatherTracker,2013-11-26 17:42:00,
2013-11-26 09:47:00,32.2,25.8,30.48,SSE,153,0.0,3.0,77,0.00,,,0.00,WeatherTracker,2013-11-26 17:47:00,
2013-11-26 09:52:00,32.6,25.6,30.48,SSE,153,0.0,3.0,75,0.00,,,0.00,WeatherTracker,2013-11-26 17:52:00,
2013-11-26 09:57:00,33.1,25.7,30.48,SSE,153,1.0,1.0,74,0.00,,,0.00,WeatherTracker,2013-11-26 17:57:00,
2013-11-26 10:02:00,33.6,25.9,30.48,SSE,153,0.0,2.0,73,0.00,,,0.00,WeatherTracker,2013-11-26 18:02:00,
2013-11-26 10:07:00,34.4,26.3,30.48,SSE,153,0.0,2.0,72,0.00,,,0.00,WeatherTracker,2013-11-26 18:07:00,
2013-11-26 10:12:00,34.9,26.1,30.47,SSE,153,0.0,1.0,70,0.00,,,0.00,WeatherTracker,2013-11-26 18:12:00,
2013-11-26 10:17:00,35.1,26.0,30.47,SSE,153,0.0,2.0,69,0.00,,,0.00,WeatherTracker,2013-11-26 18:17:00,
2013-11-26 10:22:00,35.4,25.5,30.47,SSE,153,0.0,2.0,67,0.00,,,0.00,WeatherTracker,2013-11-26 18:22:00,
2013-11-26 10:27:00,35.8,25.9,30.47,SSE,154,2.0,2.0,67,0.00,,,0.00,WeatherTracker,2013-11-26 18:27:00,
2013-11-26 10:32:00,36.2,26.0,30.47,SSE,166,0.0,3.0,66,0.00,,,0.00,WeatherTracker,2013-11-26 18:32:00,
2013-11-26 10:37:00,36.6,26.0,30.46,South,169,1.0,3.0,65,0.00,,,0.00,WeatherTracker,2013-11-26 18:37:00,
2013-11-26 10:43:00,37.0,26.0,30.46,South,169,3.0,3.0,64,0.00,,,0.00,WeatherTracker,2013-11-26 18:43:00,
2013-11-26 10:48:00,37.2,25.4,30.46,South,173,0.0,3.0,62,0.00,,,0.00,WeatherTracker,2013-11-26 18:48:00,
2013-11-26 10:53:00,37.4,24.8,30.45,South,173,0.0,3.0,60,0.00,,,0.00,WeatherTracker,2013-11-26 18:53:00,
2013-11-26 10:58:00,37.9,24.9,30.45,South,174,0.0,3.0,59,0.00,,,0.00,WeatherTracker,2013-11-26 18:58:00,
2013-11-26 11:03:00,38.5,25.4,30.45,South,173,0.0,2.0,59,0.00,,,0.00,WeatherTracker,2013-11-26 19:03:00,
2013-11-26 11:08:00,38.9,25.8,30.44,South,174,0.0,2.0,59,0.00,,,0.00,WeatherTracker,2013-11-26 19:08:00,
2013-11-26 11:13:00,39.5,25.5,30.44,South,174,0.0,2.0,57,0.00,,,0.00,WeatherTracker,2013-11-26 19:13:00,
2013-11-26 11:18:00,40.0,26.0,30.44,South,175,0.0,3.0,57,0.00,,,0.00,WeatherTracker,2013-11-26 19:18:00,
2013-11-26 11:23:00,40.4,25.5,30.43,South,175,0.0,3.0,55,0.00,,,0.00,WeatherTracker,2013-11-26 19:23:00,
2013-11-26 11:28:00,41.1,25.7,30.43,South,175,0.0,3.0,54,0.00,,,0.00,WeatherTracker,2013-11-26 19:28:00,
2013-11-26 11:33:00,41.5,25.7,30.42,South,175,0.0,2.0,53,0.00,,,0.00,WeatherTracker,2013-11-26 19:33:00,
2013-11-26 11:38:00,42.3,26.4,30.42,South,174,0.0,3.0,53,0.00,,,0.00,WeatherTracker,2013-11-26 19:38:00,
2013-11-26 11:43:00,43.2,26.8,30.42,South,174,0.0,3.0,52,0.00,,,0.00,WeatherTracker,2013-11-26 19:43:00,
2013-11-26 11:48:00,44.1,26.2,30.41,South,174,1.0,3.0,49,0.00,,,0.00,WeatherTracker,2013-11-26 19:48:00,
2013-11-26 11:53:00,44.7,26.7,30.41,SSW,208,4.0,4.0,49,0.00,,,0.00,WeatherTracker,2013-11-26 19:53:00,
2013-11-26 11:58:00,44.7,25.7,30.40,SW,225,2.0,4.0,47,0.00,,,0.00,WeatherTracker,2013-11-26 19:58:00,
2013-11-26 12:03:00,44.3,25.4,30.40,NW,314,3.0,4.0,47,0.00,,,0.00,WeatherTracker,2013-11-26 20:03:00,
2013-11-26 12:08:00,44.4,26.4,30.40,NW,323,2.0,5.0,49,0.00,,,0.00,WeatherTracker,2013-11-26 20:08:00,
2013-11-26 12:13:00,44.5,26.5,30.39,WNW,301,2.0,5.0,49,0.00,,,0.00,WeatherTracker,2013-11-26 20:13:00,
2013-11-26 12:18:00,45.0,26.5,30.39,WNW,298,4.0,5.0,48,0.00,,,0.00,WeatherTracker,2013-11-26 20:18:00,
2013-11-26 12:23:00,45.3,25.8,30.39,West,273,3.0,6.0,46,0.00,,,0.00,WeatherTracker,2013-11-26 20:23:00,
2013-11-26 12:28:00,45.9,26.3,30.38,West,273,2.0,6.0,46,0.00,,,0.00,WeatherTracker,2013-11-26 20:28:00,
2013-11-26 12:33:00,46.2,26.0,30.38,WNW,283,3.0,6.0,45,0.00,,,0.00,WeatherTracker,2013-11-26 20:33:00,
2013-11-26 12:38:00,46.2,26.0,30.38,WNW,290,0.0,4.0,45,0.00,,,0.00,WeatherTracker,2013-11-26 20:38:00,
2013-11-26 12:43:00,46.7,26.5,30.37,WNW,295,4.0,4.0,45,0.00,,,0.00,WeatherTracker,2013-11-26 20:43:00,
2013-11-26 12:49:00,47.0,26.8,30.37,WNW,295,0.0,4.0,45,0.00,,,0.00,WeatherTracker,2013-11-26 20:49:00,
2013-11-26 12:54:00,47.6,26.8,30.36,NW,304,3.0,4.0,44,0.00,,,0.00,WeatherTracker,2013-11-26 20:54:00,
2013-11-26 12:59:00,47.6,26.8,30.36,NW,304,2.0,4.0,44,0.00,,,0.00,WeatherTracker,2013-11-26 20:59:00,
2013-11-26 13:04:00,48.1,27.2,30.35,NW,304,2.0,4.0,44,0.00,,,0.00,WeatherTracker,2013-11-26 21:04:00,
2013-11-26 13:09:00,48.0,27.1,30.36,NW,304,2.0,4.0,44,0.00,,,0.00,WeatherTracker,2013-11-26 21:09:00,
2013-11-26 13:14:00,47.6,26.8,30.36,NW,305,2.0,3.0,44,0.00,,,0.00,WeatherTracker,2013-11-26 21:14:00,
2013-11-26 13:19:00,47.4,26.6,30.35,NW,304,0.0,3.0,44,0.00,,,0.00,WeatherTracker,2013-11-26 21:19:00,
2013-11-26 13:24:00,47.8,27.0,30.35,NW,304,4.0,4.0,44,0.00,,,0.00,WeatherTracker,2013-11-26 21:24:00,
2013-11-26 13:29:00,48.1,27.2,30.35,NW,316,2.0,4.0,44,0.00,,,0.00,WeatherTracker,2013-11-26 21:29:00,
2013-11-26 13:34:00,47.9,27.0,30.35,NW,325,1.0,5.0,44,0.00,,,0.00,WeatherTracker,2013-11-26 21:34:00,
2013-11-26 13:39:00,47.9,27.0,30.34,NW,325,0.0,5.0,44,0.00,,,0.00,WeatherTracker,2013-11-26 21:39:00,
2013-11-26 13:44:00,48.0,27.7,30.34,NW,325,0.0,5.0,45,0.00,,,0.00,WeatherTracker,2013-11-26 21:44:00,
2013-11-26 13:49:00,48.6,28.2,30.34,NW,325,1.0,4.0,45,0.00,,,0.00,WeatherTracker,2013-11-26 21:49:00,
2013-11-26 13:54:00,48.8,28.4,30.34,NW,318,2.0,4.0,45,0.00,,,0.00,WeatherTracker,2013-11-26 21:54:00,
2013-11-26 13:59:00,49.1,28.1,30.33,NW,318,2.0,4.0,44,0.00,,,0.00,WeatherTracker,2013-11-26 21:59:00,
2013-11-26 14:04:00,49.4,27.9,30.33,NW,318,0.0,4.0,43,0.00,,,0.00,WeatherTracker,2013-11-26 22:04:00,
2013-11-26 14:09:00,50.0,26.6,30.33,NW,318,0.0,4.0,40,0.00,,,0.00,WeatherTracker,2013-11-26 22:09:00,
2013-11-26 14:15:00,49.8,26.5,30.33,NW,319,2.0,3.0,40,0.00,,,0.00,WeatherTracker,2013-11-26 22:15:00,
2013-11-26 14:20:00,49.6,26.3,30.32,NW,319,0.0,3.0,40,0.00,,,0.00,WeatherTracker,2013-11-26 22:20:00,
2013-11-26 14:25:00,49.9,25.3,30.32,NNW,339,4.0,5.0,38,0.00,,,0.00,WeatherTracker,2013-11-26 22:25:00,
2013-11-26 14:30:00,49.6,25.0,30.32,NNW,347,2.0,6.0,38,0.00,,,0.00,WeatherTracker,2013-11-26 22:30:00,
2013-11-26 14:35:00,49.5,25.0,30.32,NNW,341,4.0,6.0,38,0.00,,,0.00,WeatherTracker,2013-11-26 22:35:00,
2013-11-26 14:40:00,49.3,24.8,30.32,NNW,341,3.0,5.0,38,0.00,,,0.00,WeatherTracker,2013-11-26 22:40:00,
2013-11-26 14:45:00,49.5,25.0,30.32,NNW,341,3.0,5.0,38,0.00,,,0.00,WeatherTracker,2013-11-26 22:45:00,
2013-11-26 14:50:00,49.7,25.1,30.32,NNW,339,3.0,5.0,38,0.00,,,0.00,WeatherTracker,2013-11-26 22:50:00,
2013-11-26 14:55:00,49.9,25.3,30.32,NNW,340,0.0,5.0,38,0.00,,,0.00,WeatherTracker,2013-11-26 22:55:00,
2013-11-26 15:00:00,50.1,25.5,30.32,NNW,339,2.0,4.0,38,0.00,,,0.00,WeatherTracker,2013-11-26 23:00:00,
2013-11-26 15:05:00,50.3,25.7,30.32,NNW,339,3.0,4.0,38,0.00,,,0.00,WeatherTracker,2013-11-26 23:05:00,
2013-11-26 15:10:00,50.2,25.6,30.32,NNW,338,1.0,4.0,38,0.00,,,0.00,WeatherTracker,2013-11-26 23:10:00,
2013-11-26 15:15:00,50.1,26.1,30.32,NNW,339,2.0,3.0,39,0.00,,,0.00,WeatherTracker,2013-11-26 23:15:00,
2013-11-26 15:20:00,49.7,25.8,30.32,NNW,339,2.0,3.0,39,0.00,,,0.00,WeatherTracker,2013-11-26 23:20:00,
2013-11-26 15:25:00,49.0,25.7,30.32,NNW,338,0.0,3.0,40,0.00,,,0.00,WeatherTracker,2013-11-26 23:25:00,
2013-11-26 15:30:00,48.5,25.9,30.32,NNW,338,0.0,3.0,41,0.00,,,0.00,WeatherTracker,2013-11-26 23:30:00,
2013-11-26 15:35:00,48.2,26.8,30.32,NNW,338,0.0,1.0,43,0.00,,,0.00,WeatherTracker,2013-11-26 23:35:00,
2013-11-26 15:40:00,47.7,27.4,30.32,NNW,339,0.0,0.0,45,0.00,,,0.00,WeatherTracker,2013-11-26 23:40:00,
2013-11-26 15:45:00,47.1,28.9,30.32,NNW,339,0.0,2.0,49,0.00,,,0.00,WeatherTracker,2013-11-26 23:45:00,
2013-11-26 15:50:00,46.5,30.3,30.32,NNW,339,0.0,2.0,53,0.00,,,0.00,WeatherTracker,2013-11-26 23:50:00,
2013-11-26 15:55:00,45.9,31.1,30.32,NNW,339,0.0,1.0,56,0.00,,,0.00,WeatherTracker,2013-11-26 23:55:00,
2013-11-26 16:00:00,45.4,31.1,30.32,NNW,339,0.0,0.0,57,0.00,,,0.00,WeatherTracker,2013-11-27 00:00:00,
2013-11-26 16:05:00,44.9,31.0,30.32,NNW,339,0.0,1.0,58,0.00,,,0.00,WeatherTracker,2013-11-27 00:05:00,
2013-11-26 16:10:00,44.4,31.0,30.32,NNW,338,0.0,1.0,59,0.00,,,0.00,WeatherTracker,2013-11-27 00:10:00,
2013-11-26 16:15:00,43.9,30.9,30.32,NNW,339,0.0,0.0,60,0.00,,,0.00,WeatherTracker,2013-11-27 00:15:00,
2013-11-26 16:20:00,43.4,30.9,30.32,NNW,339,0.0,0.0,61,0.00,,,0.00,WeatherTracker,2013-11-27 00:20:00,
2013-11-26 16:25:00,42.3,30.2,30.32,NNW,338,2.0,3.0,62,0.00,,,0.00,WeatherTracker,2013-11-27 00:25:00,
2013-11-26 16:31:00,40.7,31.0,30.32,NNW,339,2.0,3.0,68,0.00,,,0.00,WeatherTracker,2013-11-27 00:31:00,
2013-11-26 16:36:00,39.6,28.8,30.31,NNW,339,2.0,3.0,65,0.00,,,0.00,WeatherTracker,2013-11-27 00:36:00,
2013-11-26 16:41:00,39.2,28.8,30.31,NNW,338,0.0,3.0,66,0.00,,,0.00,WeatherTracker,2013-11-27 00:41:00,
2013-11-26 16:46:00,38.9,28.2,30.31,NNW,339,0.0,2.0,65,0.00,,,0.00,WeatherTracker,2013-11-27 00:46:00,
2013-11-26 16:51:00,38.3,27.6,30.31,NNW,339,0.0,1.0,65,0.00,,,0.00,WeatherTracker,2013-11-27 00:51:00,
2013-11-26 16:56:00,37.8,27.5,30.31,NNW,338,0.0,0.0,66,0.00,,,0.00,WeatherTracker,2013-11-27 00:56:00,
2013-11-26 17:01:00,37.4,27.1,30.32,NNW,338,0.0,0.0,66,0.00,,,0.00,WeatherTracker,2013-11-27 01:01:00,
2013-11-26 17:06:00,36.9,26.6,30.32,NNW,339,3.0,3.0,66,0.00,,,0.00,WeatherTracker,2013-11-27 01:06:00,
2013-11-26 17:11:00,35.7,25.8,30.32,NNW,338,0.0,3.0,67,0.00,,,0.00,WeatherTracker,2013-11-27 01:11:00,
2013-11-26 17:16:00,35.0,25.9,30.32,NNW,338,0.0,3.0,69,0.00,,,0.00,WeatherTracker,2013-11-27 01:16:00,
2013-11-26 17:21:00,34.4,25.3,30.32,NNW,338,2.0,3.0,69,0.00,,,0.00,WeatherTracker,2013-11-27 01:21:00,
2013-11-26 17:26:00,33.3,24.6,30.32,NNW,339,1.0,3.0,70,0.00,,,0.00,WeatherTracker,2013-11-27 01:26:00,
2013-11-26 17:31:00,32.5,24.2,30.32,NNW,339,2.0,3.0,71,0.00,,,0.00,WeatherTracker,2013-11-27 01:31:00,
2013-11-26 17:36:00,32.0,24.0,30.32,NNW,339,0.0,3.0,72,0.00,,,0.00,WeatherTracker,2013-11-27 01:36:00,
2013-11-26 17:41:00,31.4,23.8,30.33,NNW,343,3.0,4.0,73,0.00,,,0.00,WeatherTracker,2013-11-27 01:41:00,
2013-11-26 17:46:00,31.6,23.6,30.32,North,356,2.0,4.0,72,0.00,,,0.00,WeatherTracker,2013-11-27 01:46:00,
2013-11-26 17:51:00,30.8,23.2,30.33,SSE,154,3.0,4.0,73,0.00,,,0.00,WeatherTracker,2013-11-27 01:51:00,
2013-11-26 17:56:00,30.4,23.1,30.33,SSE,154,3.0,5.0,74,0.00,,,0.00,WeatherTracker,2013-11-27 01:56:00,
2013-11-26 18:01:00,29.9,23.3,30.33,SSE,153,0.0,5.0,76,0.00,,,0.00,WeatherTracker,2013-11-27 02:01:00,
2013-11-26 18:07:00,29.7,22.8,30.33,SSE,153,2.0,4.0,75,0.00,,,0.00,WeatherTracker,2013-11-27 02:07:00,
2013-11-26 18:12:00,29.5,22.9,30.33,SSE,154,0.0,3.0,76,0.00,,,0.00,WeatherTracker,2013-11-27 02:12:00,
2013-11-26 18:17:00,30.1,23.8,30.33,SSE,154,2.0,4.0,77,0.00,,,0.00,WeatherTracker,2013-11-27 02:17:00,
2013-11-26 18:22:00,30.4,24.1,30.33,SSE,153,1.0,4.0,77,0.00,,,0.00,WeatherTracker,2013-11-27 02:22:00,
2013-11-26 18:27:00,30.5,23.9,30.33,SSE,153,2.0,3.0,76,0.00,,,0.00,WeatherTracker,2013-11-27 02:27:00,
2013-11-26 18:32:00,30.4,24.1,30.33,SSE,153,0.0,3.0,77,0.00,,,0.00,WeatherTracker,2013-11-27 02:32:00,
2013-11-26 18:37:00,30.2,23.9,30.33,SSE,153,0.0,3.0,77,0.00,,,0.00,WeatherTracker,2013-11-27 02:37:00,
2013-11-26 18:42:00,29.9,23.6,30.33,SSE,153,0.0,2.0,77,0.00,,,0.00,WeatherTracker,2013-11-27 02:42:00,
2013-11-26 18:47:00,29.6,23.6,30.33,SSE,153,0.0,2.0,78,0.00,,,0.00,WeatherTracker,2013-11-27 02:47:00,
2013-11-26 18:52:00,29.7,23.7,30.33,SSE,153,2.0,2.0,78,0.00,,,0.00,WeatherTracker,2013-11-27 02:52:00,
2013-11-26 18:57:00,30.2,24.2,30.33,SSE,153,0.0,3.0,78,0.00,,,0.00,WeatherTracker,2013-11-27 02:57:00,
2013-11-26 19:02:00,30.3,24.3,30.33,SSE,153,0.0,3.0,78,0.00,,,0.00,WeatherTracker,2013-11-27 03:02:00,
2013-11-26 19:07:00,30.3,24.3,30.33,SSE,153,0.0,2.0,78,0.00,,,0.00,WeatherTracker,2013-11-27 03:07:00,
2013-11-26 19:12:00,30.2,24.2,30.33,SSE,153,0.0,0.0,78,0.00,,,0.00,WeatherTracker,2013-11-27 03:12:00,
2013-11-26 19:17:00,29.9,23.9,30.33,SSE,153,0.0,0.0,78,0.00,,,0.00,WeatherTracker,2013-11-27 03:17:00,
2013-11-26 19:22:00,29.8,24.1,30.33,SSE,153,0.0,0.0,79,0.00,,,0.00,WeatherTracker,2013-11-27 03:22:00,
2013-11-26 19:27:00,29.8,24.1,30.33,SSE,153,0.0,0.0,79,0.00,,,0.00,WeatherTracker,2013-11-27 03:27:00,
2013-11-26 19:32:00,29.6,23.6,30.33,SSE,153,0.0,0.0,78,0.00,,,0.00,WeatherTracker,2013-11-27 03:32:00,
2013-11-26 19:37:00,29.4,23.7,30.33,SSE,153,0.0,0.0,79,0.00,,,0.00,WeatherTracker,2013-11-27 03:37:00,
2013-11-26 19:42:00,29.3,23.9,30.33,SSE,153,0.0,0.0,80,0.00,,,0.00,WeatherTracker,2013-11-27 03:42:00,
2013-11-26 19:47:00,29.3,23.9,30.33,SSE,153,0.0,0.0,80,0.00,,,0.00,WeatherTracker,2013-11-27 03:47:00,
2013-11-26 19:52:00,29.6,24.2,30.33,SSE,153,0.0,0.0,80,0.00,,,0.00,WeatherTracker,2013-11-27 03:52:00,
2013-11-26 19:57:00,29.7,24.3,30.33,SSE,153,0.0,0.0,80,0.00,,,0.00,WeatherTracker,2013-11-27 03:57:00,
2013-11-26 20:01:00,28.5,23.1,30.32,SSE,153,3.0,3.0,80,0.00,,,0.00,WeatherTracker,2013-11-27 04:01:00,
2013-11-26 20:02:00,29.9,24.2,30.33,SSE,153,0.0,1.0,79,0.00,,,0.00,WeatherTracker,2013-11-27 04:02:00,
2013-11-26 20:03:00,28.2,22.8,30.32,SSE,153,2.0,3.0,80,0.00,,,0.00,WeatherTracker,2013-11-27 04:03:00,
2013-11-26 20:04:00,27.9,22.5,30.32,SSE,153,4.0,4.0,80,0.00,,,0.00,WeatherTracker,2013-11-27 04:04:00,
2013-11-26 20:05:00,27.8,22.4,30.32,SSE,153,3.0,4.0,80,0.00,,,0.00,WeatherTracker,2013-11-27 04:05:00,
2013-11-26 20:06:00,27.8,22.7,30.32,SSE,153,3.0,4.0,81,0.00,,,0.00,WeatherTracker,2013-11-27 04:06:00,
2013-11-26 20:07:00,30.0,24.0,30.33,SSE,153,0.0,1.0,78,0.00,,,0.00,WeatherTracker,2013-11-27 04:07:00,
2013-11-26 20:08:00,27.6,22.5,30.32,SSE,153,2.0,4.0,81,0.00,,,0.00,WeatherTracker,2013-11-27 04:08:00,
2013-11-26 20:09:00,27.5,22.4,30.32,SSE,153,3.0,4.0,81,0.00,,,0.00,WeatherTracker,2013-11-27 04:09:00,
2013-11-26 20:10:00,27.5,22.7,30.32,SSE,153,3.0,4.0,82,0.00,,,0.00,WeatherTracker,2013-11-27 04:10:00,
2013-11-26 20:11:00,27.6,22.8,30.32,SSE,153,3.0,4.0,82,0.00,,,0.00,WeatherTracker,2013-11-27 04:11:00,
2013-11-26 20:12:00,30.2,24.2,30.33,SSE,153,0.0,0.0,78,0.00,,,0.00,WeatherTracker,2013-11-27 04:12:00,
2013-11-26 20:13:00,27.9,23.1,30.32,SSE,153,3.0,4.0,82,0.00,,,0.00,WeatherTracker,2013-11-27 04:13:00,
2013-11-26 20:14:00,28.0,23.2,30.32,SSE,153,3.0,4.0,82,0.00,,,0.00,WeatherTracker,2013-11-27 04:14:00,
2013-11-26 20:15:00,28.1,23.3,30.32,SSE,153,3.0,4.0,82,0.00,,,0.00,WeatherTracker,2013-11-27 04:15:00,
2013-11-26 20:16:00,28.2,23.4,30.32,SSE,153,1.0,4.0,82,0.00,,,0.00,WeatherTracker,2013-11-27 04:16:00,
2013-11-26 20:17:00,30.2,24.2,30.33,SSE,153,0.0,0.0,78,0.00,,,0.00,WeatherTracker,2013-11-27 04:17:00,
2013-11-26 20:18:00,28.1,23.3,30.32,SSE,153,1.0,4.0,82,0.00,,,0.00,WeatherTracker,2013-11-27 04:18:00,
2013-11-26 20:19:00,28.0,23.2,30.32,SSE,153,2.0,4.0,82,0.00,,,0.00,WeatherTracker,2013-11-27 04:19:00,
2013-11-26 20:20:00,27.9,23.1,30.32,SSE,153,2.0,4.0,82,0.00,,,0.00,WeatherTracker,2013-11-27 04:20:00,
2013-11-26 20:21:00,27.8,23.0,30.32,SSE,153,1.0,4.0,82,0.00,,,0.00,WeatherTracker,2013-11-27 04:21:00,
2013-11-26 20:22:00,30.1,24.1,30.33,SSE,153,0.0,0.0,78,0.00,,,0.00,WeatherTracker,2013-11-27 04:22:00,
2013-11-26 20:23:00,27.7,22.9,30.32,SSE,153,2.0,4.0,82,0.00,,,0.00,WeatherTracker,2013-11-27 04:23:00,
2013-11-26 20:24:00,27.7,22.9,30.32,SSE,153,1.0,4.0,82,0.00,,,0.00,WeatherTracker,2013-11-27 04:24:00,
2013-11-26 20:25:00,27.7,22.9,30.32,SSE,153,2.0,3.0,82,0.00,,,0.00,WeatherTracker,2013-11-27 04:25:00,
2013-11-26 20:26:00,27.8,23.0,30.32,SSE,153,0.0,3.0,82,0.00,,,0.00,WeatherTracker,2013-11-27 04:26:00,
2013-11-26 20:27:00,29.9,23.9,30.33,SSE,153,0.0,0.0,78,0.00,,,0.00,WeatherTracker,2013-11-27 04:27:00,
2013-11-26 20:32:00,29.7,23.7,30.33,SSE,153,0.0,0.0,78,0.00,,,0.00,WeatherTracker,2013-11-27 04:32:00,
2013-11-26 20:37:00,29.7,24.0,30.33,SSE,153,0.0,0.0,79,0.00,,,0.00,WeatherTracker,2013-11-27 04:37:00,
2013-11-26 20:42:00,29.7,24.0,30.32,SSE,153,0.0,0.0,79,0.00,,,0.00,WeatherTracker,2013-11-27 04:42:00,
2013-11-26 20:47:00,29.6,23.6,30.32,SSE,153,0.0,0.0,78,0.00,,,0.00,WeatherTracker,2013-11-27 04:47:00,
2013-11-26 20:52:00,29.7,24.0,30.32,SSE,153,0.0,0.0,79,0.00,,,0.00,WeatherTracker,2013-11-27 04:52:00,
2013-11-26 20:58:00,29.0,23.0,30.32,SSE,153,2.0,2.0,78,0.00,,,0.00,WeatherTracker,2013-11-27 04:58:00,
2013-11-26 21:10:00,27.6,22.8,30.32,SSE,153,3.0,4.0,82,0.00,,,0.00,WeatherTracker,2013-11-27 05:10:00,
2013-11-26 21:15:00,28.1,23.3,30.32,SSE,153,2.0,4.0,82,0.00,,,0.00,WeatherTracker,2013-11-27 05:15:00,
2013-11-26 21:20:00,27.9,23.1,30.32,SSE,153,2.0,4.0,82,0.00,,,0.00,WeatherTracker,2013-11-27 05:20:00,
2013-11-26 21:25:00,27.8,23.0,30.32,SSE,153,1.0,3.0,82,0.00,,,0.00,WeatherTracker,2013-11-27 05:25:00,
2013-11-26 21:30:00,28.3,23.8,30.32,SSE,153,0.0,3.0,83,0.00,,,0.00,WeatherTracker,2013-11-27 05:30:00,
2013-11-26 21:35:00,28.8,24.0,30.31,SSE,153,0.0,2.0,82,0.00,,,0.00,WeatherTracker,2013-11-27 05:35:00,
2013-11-26 21:40:00,28.6,23.8,30.31,SSE,153,0.0,0.0,82,0.00,,,0.00,WeatherTracker,2013-11-27 05:40:00,
2013-11-26 21:45:00,28.3,23.2,30.31,SSE,153,0.0,0.0,81,0.00,,,0.00,WeatherTracker,2013-11-27 05:45:00,
2013-11-26 21:50:00,28.0,22.9,30.32,SSE,153,0.0,0.0,81,0.00,,,0.00,WeatherTracker,2013-11-27 05:50:00,
2013-11-26 21:55:00,27.9,23.1,30.31,SSE,153,0.0,0.0,82,0.00,,,0.00,WeatherTracker,2013-11-27 05:55:00,
2013-11-26 22:00:00,27.8,23.0,30.31,SSE,153,0.0,0.0,82,0.00,,,0.00,WeatherTracker,2013-11-27 06:00:00,
2013-11-26 22:05:00,27.3,22.5,30.32,SSE,153,0.0,0.0,82,0.00,,,0.00,WeatherTracker,2013-11-27 06:05:00,
2013-11-26 22:10:00,27.0,22.3,30.32,SSE,153,0.0,3.0,82,0.00,,,0.00,WeatherTracker,2013-11-27 06:10:00,
2013-11-26 22:15:00,26.6,21.9,30.32,SSE,153,0.0,3.0,82,0.00,,,0.00,WeatherTracker,2013-11-27 06:15:00,
2013-11-26 22:20:00,27.0,22.8,30.31,SSE,153,0.0,3.0,84,0.00,,,0.00,WeatherTracker,2013-11-27 06:20:00,
2013-11-26 22:25:00,27.1,22.9,30.31,SSE,153,0.0,0.0,84,0.00,,,0.00,WeatherTracker,2013-11-27 06:25:00,
2013-11-26 22:31:00,27.2,23.0,30.31,SSE,153,0.0,0.0,84,0.00,,,0.00,WeatherTracker,2013-11-27 06:31:00,
2013-11-26 22:36:00,27.5,23.3,30.31,SSE,153,0.0,0.0,84,0.00,,,0.00,WeatherTracker,2013-11-27 06:36:00,
2013-11-26 22:41:00,27.6,23.4,30.31,SSE,153,0.0,0.0,84,0.00,,,0.00,WeatherTracker,2013-11-27 06:41:00,
2013-11-26 22:46:00,27.5,23.3,30.31,SSE,153,0.0,0.0,84,0.00,,,0.00,WeatherTracker,2013-11-27 06:46:00,
2013-11-26 22:51:00,27.5,23.3,30.31,SSE,153,0.0,0.0,84,0.00,,,0.00,WeatherTracker,2013-11-27 06:51:00,
2013-11-26 22:56:00,27.2,23.0,30.31,SSE,153,0.0,0.0,84,0.00,,,0.00,WeatherTracker,2013-11-27 06:56:00,
2013-11-26 23:01:00,27.6,23.4,30.31,SSE,153,0.0,0.0,84,0.00,,,0.00,WeatherTracker,2013-11-27 07:01:00,
2013-11-26 23:06:00,26.3,21.9,30.31,SSE,153,2.0,5.0,83,0.00,,,0.00,WeatherTracker,2013-11-27 07:06:00,
2013-11-26 23:11:00,26.0,21.6,30.31,SSE,153,1.0,5.0,83,0.00,,,0.00,WeatherTracker,2013-11-27 07:11:00,
2013-11-26 23:16:00,26.4,22.5,30.31,SSE,153,0.0,3.0,85,0.00,,,0.00,WeatherTracker,2013-11-27 07:16:00,
2013-11-26 23:21:00,26.6,22.7,30.31,SSE,153,0.0,2.0,85,0.00,,,0.00,WeatherTracker,2013-11-27 07:21:00,
2013-11-26 23:26:00,26.6,22.4,30.31,South,177,5.0,5.0,84,0.00,,,0.00,WeatherTracker,2013-11-27 07:26:00,
2013-11-26 23:31:00,26.4,22.5,30.30,South,178,0.0,7.0,85,0.00,,,0.00,WeatherTracker,2013-11-27 07:31:00,
2013-11-26 23:36:00,26.2,22.0,30.30,South,177,0.0,7.0,84,0.00,,,0.00,WeatherTracker,2013-11-27 07:36:00,
2013-11-26 23:41:00,26.1,21.9,30.30,South,178,4.0,4.0,84,0.00,,,0.00,WeatherTracker,2013-11-27 07:41:00,
2013-11-26 23:46:00,26.1,22.2,30.30,SSW,213,2.0,5.0,85,0.00,,,0.00,WeatherTracker,2013-11-27 07:46:00,
2013-11-26 23:51:00,26.2,22.3,30.30,SSW,213,1.0,5.0,85,0.00,,,0.00,WeatherTracker,2013-11-27 07:51:00,
2013-11-26 23:56:00,26.5,22.6,30.30,SSW,213,3.0,3.0,85,0.00,,,0.00,WeatherTracker,2013-11-27 07:56:00,